START_TIME,STEP,MOV.,M35,t_acc.,PL05,t_acc.,PL06,t_acc.,PL07,t_acc.
1986-01-26 18:00:25.170 ,1,0,0.,4.8,2.,4.8,0.,4.8,0.,4.8
1986-01-26 18:00:29.970 ,1,0,0.,4.8,1.,4.8,0.,4.8,0.,4.8
1986-01-26 18:00:34.770 ,1,0,0.,4.8,0.,4.8,0.,4.8,0.,4.8
1986-01-26 18:00:39.570 ,1,0,0.,4.8,0.,4.8,0.,4.8,0.,4.8
1986-01-26 18:00:44.370 ,1,0,0.,4.8,0.,4.8,0.,4.8,0.,4.8
1986-01-26 18:00:49.170 ,2,0,0.,4.8,1.,4.8,0.,4.8,1.,4.8
1986-01-26 18:00:53.970 ,2,0,0.,4.8,1.,4.8,0.,4.8,0.,4.8
1986-01-26 18:00:58.770 ,2,0,0.,4.8,0.,4.8,0.,4.8,0.,4.8
1986-01-26 18:01:03.570 ,2,0,0.,4.8,0.,4.8,0.,4.8,0.,4.8
1986-01-26 18:01:08.370 ,2,0,0.,4.8,0.,4.8,0.,4.8,0.,4.8
1986-01-26 18:01:13.170 ,2,0,0.,4.8,0.,4.8,0.,4.8,0.,4.8
1986-01-26 18:01:17.970 ,2,0,0.,4.8,1.,4.8,0.,4.8,0.,4.8
1986-01-26 18:01:22.770 ,2,0,0.,4.8,0.,4.8,1.,4.8,1.,4.8
1986-01-26 18:01:27.570 ,2,0,0.,4.8,1.,4.8,0.,4.8,0.,4.8
1986-01-26 18:01:32.370 ,2,0,0.,4.8,2.,4.8,0.,4.8,0.,4.8
1986-01-26 18:01:37.170 ,3,0,0.,4.8,1.,4.8,0.,4.8,0.,4.8
1986-01-26 18:01:41.970 ,3,0,0.,4.8,1.,4.8,0.,4.8,0.,4.8
1986-01-26 18:01:46.770 ,3,0,0.,4.8,1.,4.8,0.,4.8,0.,4.8
1986-01-26 18:01:51.570 ,3,0,0.,4.8,0.,4.8,0.,4.8,0.,4.8
1986-01-26 18:01:56.370 ,3,0,0.,4.8,2.,4.8,0.,4.8,1.,4.8
1986-01-26 18:02:01.170 ,3,0,0.,4.8,0.,4.8,0.,4.8,0.,4.8
1986-01-26 18:02:05.970 ,3,0,0.,4.8,0.,4.8,0.,4.8,0.,4.8
1986-01-26 18:02:10.770 ,3,0,0.,4.8,0.,4.8,0.,4.8,0.,4.8
1986-01-26 18:02:15.570 ,3,0,0.,4.8,0.,4.8,0.,4.8,0.,4.8
1986-01-26 18:02:20.370 ,3,0,0.,4.8,0.,4.8,0.,4.8,0.,4.8
1986-01-26 18:02:25.170 ,4,0,0.,4.8,1.,4.8,0.,4.8,0.,4.8
1986-01-26 18:02:29.970 ,4,0,0.,4.8,0.,4.8,0.,4.8,0.,4.8
1986-01-26 18:02:34.770 ,4,0,0.,4.8,1.,4.8,0.,4.8,0.,4.8
1986-01-26 18:02:39.570 ,4,0,0.,4.8,1.,4.8,0.,4.8,0.,4.8
1986-01-26 18:02:44.370 ,4,0,0.,4.8,2.,4.8,0.,4.8,0.,4.8
1986-01-26 18:02:49.170 ,4,0,0.,4.8,0.,4.8,0.,4.8,0.,4.8
1986-01-26 18:02:53.970 ,4,0,0.,4.8,0.,4.8,0.,4.8,0.,4.8
1986-01-26 18:02:58.770 ,4,0,0.,4.8,0.,4.8,1.,4.8,0.,4.8
1986-01-26 18:03:03.570 ,4,0,0.,4.8,0.,4.8,0.,4.8,0.,4.8
1986-01-26 18:03:08.370 ,4,0,0.,4.8,0.,4.8,0.,4.8,0.,4.8
1986-01-26 18:03:13.170 ,5,0,0.,4.8,1.,4.8,0.,4.8,0.,4.8
1986-01-26 18:03:17.970 ,5,0,0.,4.8,1.,4.8,0.,4.8,0.,4.8
1986-01-26 18:03:22.770 ,5,0,0.,4.8,1.,4.8,1.,4.8,0.,4.8
1986-01-26 18:03:27.570 ,5,0,0.,4.8,0.,4.8,0.,4.8,0.,4.8
1986-01-26 18:03:32.370 ,5,0,0.,4.8,1.,4.8,0.,4.8,0.,4.8
1986-01-26 18:03:37.170 ,5,0,0.,4.8,1.,4.8,0.,4.8,0.,4.8
1986-01-26 18:03:41.970 ,5,0,0.,4.8,2.,4.8,0.,4.8,0.,4.8
1986-01-26 18:03:46.770 ,5,0,0.,4.8,0.,4.8,0.,4.8,0.,4.8
1986-01-26 18:03:51.570 ,5,0,0.,4.8,0.,4.8,0.,4.8,0.,4.8
1986-01-26 18:03:56.370 ,5,0,0.,4.8,0.,4.8,0.,4.8,0.,4.8
1986-01-26 18:04:01.170 ,6,0,0.,4.8,0.,4.8,0.,4.8,0.,4.8
1986-01-26 18:04:05.970 ,6,0,0.,4.8,2.,4.8,0.,4.8,0.,4.8
1986-01-26 18:04:10.770 ,6,0,0.,4.8,0.,4.8,0.,4.8,0.,4.8
1986-01-26 18:04:15.570 ,6,0,0.,4.8,0.,4.8,0.,4.8,0.,4.8
1986-01-26 18:04:20.370 ,6,0,0.,4.8,0.,4.8,1.,4.8,0.,4.8
1986-01-26 18:04:25.170 ,6,0,0.,4.8,1.,4.8,0.,4.8,0.,4.8
1986-01-26 18:04:29.970 ,6,0,0.,4.8,0.,4.8,0.,4.8,0.,4.8
1986-01-26 18:04:34.770 ,6,0,0.,4.8,1.,4.8,0.,4.8,0.,4.8
1986-01-26 18:04:39.570 ,6,0,0.,4.8,0.,4.8,0.,4.8,0.,4.8
1986-01-26 18:04:44.370 ,6,0,0.,4.8,0.,4.8,0.,4.8,0.,4.8
1986-01-26 18:04:49.170 ,7,0,0.,4.8,0.,4.8,0.,4.8,1.,4.8
1986-01-26 18:04:53.970 ,7,0,0.,4.8,1.,4.8,0.,4.8,0.,4.8
1986-01-26 18:04:58.770 ,7,0,0.,4.8,2.,4.8,0.,4.8,0.,4.8
1986-01-26 18:05:03.570 ,7,0,0.,4.8,0.,4.8,0.,4.8,0.,4.8
1986-01-26 18:05:08.370 ,7,0,0.,4.8,0.,4.8,0.,4.8,0.,4.8
1986-01-26 18:05:13.170 ,7,0,0.,4.8,0.,4.8,0.,4.8,1.,4.8
1986-01-26 18:05:17.970 ,7,0,0.,4.8,0.,4.8,0.,4.8,0.,4.8
1986-01-26 18:05:22.770 ,7,0,0.,4.8,0.,4.8,0.,4.8,0.,4.8
1986-01-26 18:05:27.570 ,7,0,0.,4.8,0.,4.8,0.,4.8,0.,4.8
1986-01-26 18:05:32.370 ,7,0,0.,4.8,1.,4.8,0.,4.8,0.,4.8
1986-01-26 18:05:37.170 ,7,0,0.,4.8,0.,4.8,0.,4.8,0.,4.8
1986-01-26 18:05:41.970 ,7,0,0.,4.8,2.,4.8,0.,4.8,0.,4.8
1986-01-26 18:05:46.770 ,7,0,0.,4.8,1.,4.8,0.,4.8,0.,4.8
1986-01-26 18:05:51.570 ,7,0,0.,4.8,0.,4.8,0.,4.8,1.,4.8
1986-01-26 18:05:56.370 ,7,0,0.,4.8,1.,4.8,0.,4.8,0.,4.8
1986-01-26 18:06:01.170 ,7,0,0.,4.8,1.,4.8,0.,4.8,0.,4.8
1986-01-26 18:06:05.970 ,7,0,0.,4.8,0.,4.8,0.,4.8,0.,4.8
1986-01-26 18:06:10.770 ,7,0,0.,4.8,0.,4.8,0.,4.8,0.,4.8
1986-01-26 18:06:15.570 ,7,0,0.,4.8,0.,4.8,0.,4.8,0.,4.8
1986-01-26 18:06:20.370 ,7,0,0.,4.8,0.,4.8,0.,4.8,0.,4.8
1986-01-26 18:06:25.170 ,6,0,0.,4.8,1.,4.8,0.,4.8,0.,4.8
1986-01-26 18:06:29.970 ,6,0,0.,4.8,0.,4.8,0.,4.8,0.,4.8
1986-01-26 18:06:34.770 ,6,0,0.,4.8,1.,4.8,0.,4.8,0.,4.8
1986-01-26 18:06:39.570 ,6,0,0.,4.8,0.,4.8,0.,4.8,0.,4.8
1986-01-26 18:06:44.370 ,6,0,0.,4.8,0.,4.8,0.,4.8,0.,4.8
1986-01-26 18:06:49.170 ,6,0,0.,4.8,1.,4.8,1.,4.8,0.,4.8
1986-01-26 18:06:53.970 ,6,0,0.,4.8,1.,4.8,0.,4.8,0.,4.8
1986-01-26 18:06:58.770 ,6,0,0.,4.8,0.,4.8,0.,4.8,0.,4.8
1986-01-26 18:07:03.570 ,6,0,0.,4.8,0.,4.8,0.,4.8,0.,4.8
1986-01-26 18:07:08.370 ,6,0,0.,4.8,1.,4.8,0.,4.8,0.,4.8
1986-01-26 18:07:13.170 ,5,0,0.,4.8,1.,4.8,0.,4.8,0.,4.8
1986-01-26 18:07:17.970 ,5,0,0.,4.8,1.,4.8,1.,4.8,0.,4.8
1986-01-26 18:07:22.770 ,5,0,0.,4.8,1.,4.8,0.,4.8,0.,4.8
1986-01-26 18:07:27.570 ,5,0,0.,4.8,1.,4.8,0.,4.8,0.,4.8
1986-01-26 18:07:32.370 ,5,0,0.,4.8,1.,4.8,0.,4.8,0.,4.8
1986-01-26 18:07:37.170 ,5,0,0.,4.8,1.,4.8,0.,4.8,0.,4.8
1986-01-26 18:07:41.970 ,5,0,0.,4.8,2.,4.8,0.,4.8,0.,4.8
1986-01-26 18:07:46.770 ,5,0,0.,4.8,0.,4.8,0.,4.8,0.,4.8
1986-01-26 18:07:51.570 ,5,0,0.,4.8,0.,4.8,0.,4.8,0.,4.8
1986-01-26 18:07:56.370 ,5,0,0.,4.8,0.,4.8,0.,4.8,0.,4.8
1986-01-26 18:08:01.170 ,4,0,0.,4.8,1.,4.8,1.,4.8,0.,4.8
1986-01-26 18:08:05.970 ,4,0,0.,4.8,1.,4.8,0.,4.8,0.,4.8
1986-01-26 18:08:10.770 ,4,0,0.,4.8,0.,4.8,0.,4.8,0.,4.8
1986-01-26 18:08:15.570 ,4,0,0.,4.8,1.,4.8,0.,4.8,1.,4.8
1986-01-26 18:08:20.370 ,4,0,0.,4.8,1.,4.8,0.,4.8,0.,4.8
1986-01-26 18:08:25.170 ,4,0,0.,4.8,0.,4.8,0.,4.8,0.,4.8
1986-01-26 18:08:29.970 ,4,0,0.,4.8,0.,4.8,1.,4.8,0.,4.8
1986-01-26 18:08:34.770 ,4,0,0.,4.8,1.,4.8,0.,4.8,0.,4.8
1986-01-26 18:08:39.570 ,4,0,0.,4.8,0.,4.8,0.,4.8,0.,4.8
1986-01-26 18:08:44.370 ,4,0,0.,4.8,0.,4.8,0.,4.8,0.,4.8
1986-01-26 18:08:49.170 ,3,0,0.,4.8,1.,4.8,0.,4.8,0.,4.8
1986-01-26 18:08:53.970 ,3,0,0.,4.8,0.,4.8,0.,4.8,0.,4.8
1986-01-26 18:08:58.770 ,3,0,0.,4.8,1.,4.8,0.,4.8,0.,4.8
1986-01-26 18:09:03.570 ,3,0,0.,4.8,0.,4.8,0.,4.8,0.,4.8
1986-01-26 18:09:08.370 ,3,0,0.,4.8,2.,4.8,0.,4.8,0.,4.8
1986-01-26 18:09:13.170 ,3,0,0.,4.8,0.,4.8,0.,4.8,0.,4.8
1986-01-26 18:09:17.970 ,3,0,0.,4.8,0.,4.8,0.,4.8,1.,4.8
1986-01-26 18:09:22.770 ,3,0,0.,4.8,0.,4.8,0.,4.8,0.,4.8
1986-01-26 18:09:27.570 ,3,0,0.,4.8,1.,4.8,0.,4.8,0.,4.8
1986-01-26 18:09:32.370 ,3,0,0.,4.8,1.,4.8,0.,4.8,0.,4.8
1986-01-26 18:09:37.170 ,2,0,0.,4.8,0.,4.8,0.,4.8,0.,4.8
1986-01-26 18:09:41.970 ,2,0,0.,4.8,0.,4.8,1.,4.8,0.,4.8
1986-01-26 18:09:46.770 ,2,0,0.,4.8,0.,4.8,0.,4.8,0.,4.8
1986-01-26 18:09:51.570 ,2,0,0.,4.8,2.,4.8,1.,4.8,0.,4.8
1986-01-26 18:09:56.370 ,2,0,0.,4.8,1.,4.8,0.,4.8,0.,4.8
1986-01-26 18:10:01.170 ,2,0,0.,4.8,0.,4.8,0.,4.8,0.,4.8
1986-01-26 18:10:05.970 ,2,0,0.,4.8,1.,4.8,0.,4.8,0.,4.8
1986-01-26 18:10:10.770 ,2,0,0.,4.8,0.,4.8,0.,4.8,0.,4.8
1986-01-26 18:10:15.570 ,2,0,0.,4.8,0.,4.8,0.,4.8,0.,4.8
1986-01-26 18:10:20.370 ,2,0,0.,4.8,2.,4.8,0.,4.8,0.,4.8
1986-01-26 18:10:25.170 ,1,0,0.,4.8,0.,4.8,0.,4.8,0.,4.8
1986-01-26 18:10:29.970 ,1,0,0.,4.8,1.,4.8,0.,4.8,0.,4.8
1986-01-26 18:10:34.770 ,1,0,0.,4.8,1.,4.8,0.,4.8,1.,4.8
1986-01-26 18:10:39.570 ,1,0,0.,4.8,0.,4.8,0.,4.8,0.,4.8
1986-01-26 18:10:44.370 ,1,0,0.,4.8,0.,4.8,0.,4.8,1.,4.8
1986-01-26 18:10:49.170 ,1,0,0.,4.8,1.,4.8,0.,4.8,0.,4.8
1986-01-26 18:10:53.970 ,1,0,0.,4.8,0.,4.8,1.,4.8,1.,4.8
1986-01-26 18:10:58.770 ,1,0,0.,4.8,2.,4.8,0.,4.8,0.,4.8
1986-01-26 18:11:03.570 ,1,0,0.,4.8,1.,4.8,0.,4.8,0.,4.8
1986-01-26 18:11:08.370 ,1,0,0.,4.8,0.,4.8,0.,4.8,0.,4.8
1986-01-26 18:11:13.170 ,0,0,0.,4.8,0.,4.8,0.,4.8,0.,4.8
1986-01-26 18:11:17.970 ,0,0,0.,4.8,1.,4.8,0.,4.8,0.,4.8
1986-01-26 18:11:22.770 ,0,0,0.,4.8,2.,4.8,0.,4.8,0.,4.8
1986-01-26 18:11:27.570 ,0,0,0.,4.8,0.,4.8,0.,4.8,1.,4.8
1986-01-26 18:11:32.370 ,0,0,0.,4.8,2.,4.8,0.,4.8,0.,4.8
1986-01-26 18:11:37.170 ,0,0,0.,4.8,0.,4.8,0.,4.8,0.,4.8
1986-01-26 18:11:41.970 ,0,0,0.,4.8,0.,4.8,0.,4.8,0.,4.8
1986-01-26 18:11:46.770 ,0,0,0.,4.8,3.,4.8,1.,4.8,0.,4.8
1986-01-26 18:11:51.570 ,0,0,0.,4.8,0.,4.8,0.,4.8,0.,4.8
1986-01-26 18:11:56.370 ,0,0,0.,4.8,0.,4.8,0.,4.8,0.,4.8
1986-01-26 18:12:01.170 ,0,0,0.,4.8,0.,4.8,0.,4.8,0.,4.8
1986-01-26 18:12:05.970 ,0,0,0.,4.8,1.,4.8,0.,4.8,0.,4.8
1986-01-26 18:12:10.770 ,0,0,0.,4.8,1.,4.8,1.,4.8,0.,4.8
1986-01-26 18:12:15.570 ,0,0,0.,4.8,0.,4.8,0.,4.8,0.,4.8
1986-01-26 18:12:20.370 ,0,0,0.,4.8,0.,4.8,0.,4.8,0.,4.8
1986-01-26 18:12:25.170 ,0,0,0.,4.8,0.,4.8,0.,4.8,0.,4.8
1986-01-26 18:12:29.970 ,0,0,0.,4.8,0.,4.8,0.,4.8,0.,4.8
1986-01-26 18:12:34.770 ,0,0,0.,4.8,1.,4.8,0.,4.8,0.,4.8
1986-01-26 18:12:39.570 ,0,0,0.,4.8,0.,4.8,0.,4.8,0.,4.8
1986-01-26 18:12:44.370 ,0,0,0.,4.8,0.,4.8,0.,4.8,1.,4.8
1986-01-26 18:12:49.170 ,1,0,0.,4.8,0.,4.8,0.,4.8,0.,4.8
1986-01-26 18:12:53.970 ,1,0,0.,4.8,1.,4.8,0.,4.8,0.,4.8
1986-01-26 18:12:58.770 ,1,0,0.,4.8,1.,4.8,0.,4.8,0.,4.8
1986-01-26 18:13:03.570 ,1,0,0.,4.8,1.,4.8,0.,4.8,0.,4.8
1986-01-26 18:13:08.370 ,1,0,0.,4.8,0.,4.8,0.,4.8,0.,4.8
1986-01-26 18:13:13.170 ,1,0,0.,4.8,2.,4.8,0.,4.8,0.,4.8
1986-01-26 18:13:17.970 ,1,0,0.,4.8,0.,4.8,1.,4.8,0.,4.8
1986-01-26 18:13:22.770 ,1,0,0.,4.8,0.,4.8,0.,4.8,1.,4.8
1986-01-26 18:13:27.570 ,1,0,0.,4.8,0.,4.8,0.,4.8,0.,4.8
1986-01-26 18:13:32.370 ,1,0,0.,4.8,1.,4.8,0.,4.8,1.,4.8
1986-01-26 18:13:37.170 ,2,0,0.,4.8,0.,4.8,0.,4.8,0.,4.8
1986-01-26 18:13:41.970 ,2,0,0.,4.8,0.,4.8,0.,4.8,0.,4.8
1986-01-26 18:13:46.770 ,2,0,0.,4.8,1.,4.8,0.,4.8,0.,4.8
1986-01-26 18:13:51.570 ,2,0,0.,4.8,0.,4.8,0.,4.8,0.,4.8
1986-01-26 18:13:56.370 ,2,0,0.,4.8,1.,4.8,0.,4.8,0.,4.8
1986-01-26 18:14:01.170 ,2,0,0.,4.8,1.,4.8,0.,4.8,0.,4.8
1986-01-26 18:14:05.970 ,2,0,0.,4.8,0.,4.8,0.,4.8,0.,4.8
1986-01-26 18:14:10.770 ,2,0,0.,4.8,0.,4.8,0.,4.8,0.,4.8
1986-01-26 18:14:15.570 ,2,0,0.,4.8,0.,4.8,0.,4.8,0.,4.8
1986-01-26 18:14:20.370 ,2,0,0.,4.8,1.,4.8,2.,4.8,0.,4.8
1986-01-26 18:14:25.170 ,3,0,0.,4.8,1.,4.8,0.,4.8,0.,4.8
1986-01-26 18:14:29.970 ,3,0,0.,4.8,0.,4.8,0.,4.8,0.,4.8
1986-01-26 18:14:34.770 ,3,0,0.,4.8,0.,4.8,0.,4.8,0.,4.8
1986-01-26 18:14:39.570 ,3,0,0.,4.8,2.,4.8,0.,4.8,0.,4.8
1986-01-26 18:14:44.370 ,3,0,0.,4.8,1.,4.8,0.,4.8,0.,4.8
1986-01-26 18:14:49.170 ,3,0,0.,4.8,1.,4.8,0.,4.8,0.,4.8
1986-01-26 18:14:53.970 ,3,0,0.,4.8,0.,4.8,0.,4.8,0.,4.8
1986-01-26 18:14:58.770 ,3,0,0.,4.8,0.,4.8,0.,4.8,0.,4.8
1986-01-26 18:15:03.570 ,3,0,0.,4.8,1.,4.8,0.,4.8,0.,4.8
1986-01-26 18:15:08.370 ,3,0,0.,4.8,0.,4.8,0.,4.8,0.,4.8
1986-01-26 18:15:13.170 ,4,0,0.,4.8,0.,4.8,0.,4.8,0.,4.8
1986-01-26 18:15:17.970 ,4,0,0.,4.8,0.,4.8,0.,4.8,0.,4.8
1986-01-26 18:15:22.770 ,4,0,0.,4.8,0.,4.8,0.,4.8,0.,4.8
1986-01-26 18:15:27.570 ,4,0,0.,4.8,0.,4.8,0.,4.8,0.,4.8
1986-01-26 18:15:32.370 ,4,0,0.,4.8,0.,4.8,0.,4.8,0.,4.8
1986-01-26 18:15:37.170 ,4,0,0.,4.8,0.,4.8,0.,4.8,0.,4.8
1986-01-26 18:15:41.970 ,4,0,0.,4.8,0.,4.8,1.,4.8,0.,4.8
1986-01-26 18:15:46.770 ,4,0,0.,4.8,0.,4.8,0.,4.8,0.,4.8
1986-01-26 18:15:51.570 ,4,0,0.,4.8,1.,4.8,0.,4.8,0.,4.8
1986-01-26 18:15:56.370 ,4,0,0.,4.8,1.,4.8,0.,4.8,0.,4.8
1986-01-26 18:16:01.170 ,5,0,0.,4.8,1.,4.8,0.,4.8,0.,4.8
1986-01-26 18:16:05.970 ,5,0,0.,4.8,0.,4.8,0.,4.8,0.,4.8
1986-01-26 18:16:10.770 ,5,0,0.,4.8,0.,4.8,0.,4.8,0.,4.8
1986-01-26 18:16:15.570 ,5,0,0.,4.8,2.,4.8,0.,4.8,0.,4.8
1986-01-26 18:16:20.370 ,5,0,0.,4.8,4.,4.8,0.,4.8,0.,4.8
1986-01-26 18:16:25.170 ,5,0,0.,4.8,2.,4.8,0.,4.8,0.,4.8
1986-01-26 18:16:29.970 ,5,0,0.,4.8,1.,4.8,0.,4.8,0.,4.8
1986-01-26 18:16:34.770 ,5,0,0.,4.8,2.,4.8,0.,4.8,0.,4.8
1986-01-26 18:16:39.570 ,5,0,0.,4.8,0.,4.8,0.,4.8,0.,4.8
1986-01-26 18:16:44.370 ,5,0,0.,4.8,1.,4.8,0.,4.8,0.,4.8
1986-01-26 18:16:49.170 ,6,0,0.,4.8,1.,4.8,0.,4.8,0.,4.8
1986-01-26 18:16:53.970 ,6,0,0.,4.8,2.,4.8,0.,4.8,0.,4.8
1986-01-26 18:16:58.770 ,6,0,0.,4.8,1.,4.8,0.,4.8,0.,4.8
1986-01-26 18:17:03.570 ,6,0,0.,4.8,0.,4.8,0.,4.8,0.,4.8
1986-01-26 18:17:08.370 ,6,0,0.,4.8,0.,4.8,1.,4.8,0.,4.8
1986-01-26 18:17:13.170 ,6,0,0.,4.8,0.,4.8,0.,4.8,1.,4.8
1986-01-26 18:17:17.970 ,6,0,0.,4.8,0.,4.8,0.,4.8,0.,4.8
1986-01-26 18:17:22.770 ,6,0,0.,4.8,0.,4.8,0.,4.8,0.,4.8
1986-01-26 18:17:27.570 ,6,0,0.,4.8,0.,4.8,0.,4.8,0.,4.8
1986-01-26 18:17:32.370 ,6,0,0.,4.8,0.,4.8,0.,4.8,0.,4.8
1986-01-26 18:17:37.170 ,7,0,0.,4.8,1.,4.8,0.,4.8,1.,4.8
1986-01-26 18:17:41.970 ,7,0,0.,4.8,0.,4.8,0.,4.8,0.,4.8
1986-01-26 18:17:46.770 ,7,0,0.,4.8,1.,4.8,0.,4.8,0.,4.8
1986-01-26 18:17:51.570 ,7,0,0.,4.8,0.,4.8,0.,4.8,0.,4.8
1986-01-26 18:17:56.370 ,7,0,0.,4.8,2.,4.8,0.,4.8,0.,4.8
1986-01-26 18:18:01.170 ,7,0,0.,4.8,0.,4.8,0.,4.8,0.,4.8
1986-01-26 18:18:05.970 ,7,0,0.,4.8,1.,4.8,0.,4.8,0.,4.8
1986-01-26 18:18:10.770 ,7,0,0.,4.8,3.,4.8,0.,4.8,0.,4.8
1986-01-26 18:18:15.570 ,7,0,0.,4.8,0.,4.8,0.,4.8,1.,4.8
1986-01-26 18:18:20.370 ,7,0,0.,4.8,0.,4.8,0.,4.8,0.,4.8
1986-01-26 18:18:25.170 ,7,0,0.,4.8,1.,4.8,1.,4.8,0.,4.8
1986-01-26 18:18:29.970 ,7,0,0.,4.8,2.,4.8,0.,4.8,0.,4.8
1986-01-26 18:18:34.770 ,7,0,0.,4.8,2.,4.8,0.,4.8,0.,4.8
1986-01-26 18:18:39.570 ,7,0,0.,4.8,0.,4.8,0.,4.8,0.,4.8
1986-01-26 18:18:44.370 ,7,0,0.,4.8,1.,4.8,0.,4.8,0.,4.8
1986-01-26 18:18:49.170 ,7,0,0.,4.8,2.,4.8,0.,4.8,0.,4.8
1986-01-26 18:18:53.970 ,7,0,0.,4.8,1.,4.8,1.,4.8,0.,4.8
1986-01-26 18:18:58.770 ,7,0,0.,4.8,0.,4.8,0.,4.8,0.,4.8
1986-01-26 18:19:03.570 ,7,0,0.,4.8,0.,4.8,0.,4.8,0.,4.8
1986-01-26 18:19:08.370 ,7,0,0.,4.8,2.,4.8,0.,4.8,0.,4.8
1986-01-26 18:19:13.170 ,6,0,0.,4.8,0.,4.8,1.,4.8,0.,4.8
1986-01-26 18:19:17.970 ,6,0,0.,4.8,1.,4.8,0.,4.8,0.,4.8
1986-01-26 18:19:22.770 ,6,0,0.,4.8,0.,4.8,0.,4.8,0.,4.8
1986-01-26 18:19:27.570 ,6,0,0.,4.8,1.,4.8,0.,4.8,0.,4.8
1986-01-26 18:19:32.370 ,6,0,0.,4.8,2.,4.8,0.,4.8,0.,4.8
1986-01-26 18:19:37.170 ,6,0,0.,4.8,2.,4.8,0.,4.8,0.,4.8
1986-01-26 18:19:41.970 ,6,0,0.,4.8,0.,4.8,1.,4.8,0.,4.8
1986-01-26 18:19:46.770 ,6,0,0.,4.8,1.,4.8,0.,4.8,0.,4.8
1986-01-26 18:19:51.570 ,6,0,0.,4.8,1.,4.8,0.,4.8,0.,4.8
1986-01-26 18:19:56.370 ,6,0,0.,4.8,1.,4.8,1.,4.8,0.,4.8
1986-01-26 18:20:01.170 ,5,0,0.,4.8,0.,4.8,0.,4.8,0.,4.8
1986-01-26 18:20:05.970 ,5,0,0.,4.8,1.,4.8,0.,4.8,0.,4.8
1986-01-26 18:20:10.770 ,5,0,0.,4.8,0.,4.8,0.,4.8,0.,4.8
1986-01-26 18:20:15.570 ,5,0,0.,4.8,1.,4.8,0.,4.8,1.,4.8
1986-01-26 18:20:20.370 ,5,0,0.,4.8,1.,4.8,0.,4.8,0.,4.8
1986-01-26 18:20:25.170 ,5,0,0.,4.8,1.,4.8,2.,4.8,0.,4.8
1986-01-26 18:20:29.970 ,5,0,0.,4.8,0.,4.8,0.,4.8,0.,4.8
1986-01-26 18:20:34.770 ,5,0,0.,4.8,3.,4.8,0.,4.8,0.,4.8
1986-01-26 18:20:39.570 ,5,0,0.,4.8,0.,4.8,0.,4.8,0.,4.8
1986-01-26 18:20:44.370 ,5,0,0.,4.8,1.,4.8,0.,4.8,0.,4.8
1986-01-26 18:20:49.170 ,4,0,0.,4.8,1.,4.8,0.,4.8,0.,4.8
1986-01-26 18:20:53.970 ,4,0,0.,4.8,1.,4.8,2.,4.8,0.,4.8
1986-01-26 18:20:58.770 ,4,0,0.,4.8,0.,4.8,0.,4.8,0.,4.8
1986-01-26 18:21:03.570 ,4,0,0.,4.8,0.,4.8,0.,4.8,0.,4.8
1986-01-26 18:21:08.370 ,4,0,0.,4.8,1.,4.8,0.,4.8,0.,4.8
1986-01-26 18:21:13.170 ,4,0,0.,4.8,2.,4.8,0.,4.8,0.,4.8
1986-01-26 18:21:17.970 ,4,0,0.,4.8,0.,4.8,0.,4.8,0.,4.8
1986-01-26 18:21:22.770 ,4,0,0.,4.8,0.,4.8,0.,4.8,0.,4.8
1986-01-26 18:21:27.570 ,4,0,0.,4.8,1.,4.8,0.,4.8,0.,4.8
1986-01-26 18:21:32.370 ,4,0,0.,4.8,1.,4.8,0.,4.8,0.,4.8
1986-01-26 18:21:37.170 ,3,0,0.,4.8,1.,4.8,0.,4.8,0.,4.8
1986-01-26 18:21:41.970 ,3,0,0.,4.8,1.,4.8,0.,4.8,0.,4.8
1986-01-26 18:21:46.770 ,3,0,0.,4.8,1.,4.8,0.,4.8,0.,4.8
1986-01-26 18:21:51.570 ,3,0,0.,4.8,0.,4.8,0.,4.8,0.,4.8
1986-01-26 18:21:56.370 ,3,0,0.,4.8,0.,4.8,0.,4.8,0.,4.8
1986-01-26 18:22:01.170 ,3,0,0.,4.8,2.,4.8,0.,4.8,0.,4.8
1986-01-26 18:22:05.970 ,3,0,0.,4.8,0.,4.8,0.,4.8,0.,4.8
1986-01-26 18:22:10.770 ,3,0,0.,4.8,0.,4.8,0.,4.8,0.,4.8
1986-01-26 18:22:15.570 ,3,0,0.,4.8,0.,4.8,0.,4.8,1.,4.8
1986-01-26 18:22:20.370 ,3,0,0.,4.8,2.,4.8,0.,4.8,0.,4.8
1986-01-26 18:22:25.170 ,2,0,0.,4.8,0.,4.8,0.,4.8,0.,4.8
1986-01-26 18:22:29.970 ,2,0,0.,4.8,0.,4.8,0.,4.8,0.,4.8
1986-01-26 18:22:34.770 ,2,0,0.,4.8,0.,4.8,0.,4.8,0.,4.8
1986-01-26 18:22:39.570 ,2,0,0.,4.8,2.,4.8,0.,4.8,0.,4.8
1986-01-26 18:22:44.370 ,2,0,0.,4.8,0.,4.8,0.,4.8,0.,4.8
1986-01-26 18:22:49.170 ,2,0,0.,4.8,1.,4.8,0.,4.8,0.,4.8
1986-01-26 18:22:53.970 ,2,0,0.,4.8,2.,4.8,0.,4.8,0.,4.8
1986-01-26 18:22:58.770 ,2,0,0.,4.8,2.,4.8,0.,4.8,0.,4.8
1986-01-26 18:23:03.570 ,2,0,0.,4.8,1.,4.8,0.,4.8,0.,4.8
1986-01-26 18:23:08.370 ,2,0,0.,4.8,0.,4.8,0.,4.8,0.,4.8
1986-01-26 18:23:13.170 ,1,0,0.,4.8,0.,4.8,0.,4.8,0.,4.8
1986-01-26 18:23:17.970 ,1,0,0.,4.8,1.,4.8,0.,4.8,0.,4.8
1986-01-26 18:23:22.770 ,1,0,0.,4.8,0.,4.8,0.,4.8,0.,4.8
1986-01-26 18:23:27.570 ,1,0,0.,4.8,0.,4.8,0.,4.8,0.,4.8
1986-01-26 18:23:32.370 ,1,0,0.,4.8,2.,4.8,0.,4.8,0.,4.8
1986-01-26 18:23:37.170 ,1,0,0.,4.8,1.,4.8,1.,4.8,0.,4.8
1986-01-26 18:23:41.970 ,1,0,0.,4.8,1.,4.8,0.,4.8,0.,4.8
1986-01-26 18:23:46.770 ,1,0,0.,4.8,0.,4.8,0.,4.8,0.,4.8
1986-01-26 18:23:51.570 ,1,0,0.,4.8,0.,4.8,0.,4.8,0.,4.8
1986-01-26 18:23:56.370 ,1,0,0.,4.8,0.,4.8,0.,4.8,1.,4.8
1986-01-26 18:24:01.170 ,0,0,0.,4.8,1.,4.8,0.,4.8,0.,4.8
1986-01-26 18:24:05.970 ,0,0,0.,4.8,1.,4.8,0.,4.8,0.,4.8
1986-01-26 18:24:10.770 ,0,0,0.,4.8,1.,4.8,0.,4.8,0.,4.8
1986-01-26 18:24:15.570 ,0,0,0.,4.8,0.,4.8,1.,4.8,0.,4.8
1986-01-26 18:24:20.370 ,0,0,0.,4.8,1.,4.8,0.,4.8,0.,4.8
1986-01-26 18:24:25.170 ,0,0,0.,4.8,1.,4.8,0.,4.8,0.,4.8
1986-01-26 18:24:29.970 ,0,0,0.,4.8,0.,4.8,0.,4.8,0.,4.8
1986-01-26 18:24:34.770 ,0,0,0.,4.8,1.,4.8,0.,4.8,0.,4.8
1986-01-26 18:24:39.570 ,0,0,0.,4.8,0.,4.8,0.,4.8,0.,4.8
1986-01-26 18:24:44.370 ,0,0,0.,4.8,1.,4.8,0.,4.8,0.,4.8
1986-01-26 18:24:49.170 ,0,0,0.,4.8,0.,4.8,0.,4.8,0.,4.8
1986-01-26 18:24:53.970 ,0,0,0.,4.8,0.,4.8,0.,4.8,0.,4.8
1986-01-26 18:24:58.770 ,0,0,0.,4.8,1.,4.8,0.,4.8,0.,4.8
1986-01-26 18:25:03.570 ,0,0,0.,4.8,0.,4.8,0.,4.8,0.,4.8
1986-01-26 18:25:08.370 ,0,0,0.,4.8,1.,4.8,0.,4.8,0.,4.8
1986-01-26 18:25:13.170 ,0,0,0.,4.8,4.,4.8,0.,4.8,0.,4.8
1986-01-26 18:25:17.970 ,0,0,0.,4.8,0.,4.8,0.,4.8,0.,4.8
1986-01-26 18:25:22.770 ,0,0,0.,4.8,0.,4.8,0.,4.8,0.,4.8
1986-01-26 18:25:27.570 ,0,0,0.,4.8,2.,4.8,0.,4.8,0.,4.8
1986-01-26 18:25:32.370 ,0,0,0.,4.8,2.,4.8,0.,4.8,0.,4.8
1986-01-26 18:25:37.170 ,1,0,0.,4.8,3.,4.8,0.,4.8,0.,4.8
1986-01-26 18:25:41.970 ,1,0,0.,4.8,0.,4.8,1.,4.8,1.,4.8
1986-01-26 18:25:46.770 ,1,0,0.,4.8,1.,4.8,0.,4.8,1.,4.8
1986-01-26 18:25:51.570 ,1,0,0.,4.8,1.,4.8,0.,4.8,0.,4.8
1986-01-26 18:25:56.370 ,1,0,0.,4.8,1.,4.8,1.,4.8,0.,4.8
1986-01-26 18:26:01.170 ,1,0,0.,4.8,0.,4.8,0.,4.8,0.,4.8
1986-01-26 18:26:05.970 ,1,0,0.,4.8,1.,4.8,0.,4.8,0.,4.8
1986-01-26 18:26:10.770 ,1,0,0.,4.8,0.,4.8,0.,4.8,0.,4.8
1986-01-26 18:26:15.570 ,1,0,0.,4.8,0.,4.8,0.,4.8,0.,4.8
1986-01-26 18:26:20.370 ,1,0,0.,4.8,0.,4.8,0.,4.8,0.,4.8
1986-01-26 18:26:25.170 ,2,0,0.,4.8,1.,4.8,0.,4.8,0.,4.8
1986-01-26 18:26:29.970 ,2,0,0.,4.8,1.,4.8,0.,4.8,0.,4.8
1986-01-26 18:26:34.770 ,2,0,0.,4.8,1.,4.8,0.,4.8,0.,4.8
1986-01-26 18:26:39.570 ,2,0,0.,4.8,1.,4.8,0.,4.8,0.,4.8
1986-01-26 18:26:44.370 ,2,0,0.,4.8,1.,4.8,0.,4.8,0.,4.8
1986-01-26 18:26:49.170 ,2,0,0.,4.8,1.,4.8,1.,4.8,0.,4.8
1986-01-26 18:26:53.970 ,2,0,0.,4.8,0.,4.8,0.,4.8,0.,4.8
1986-01-26 18:26:58.770 ,2,0,0.,4.8,0.,4.8,0.,4.8,0.,4.8
1986-01-26 18:27:03.570 ,2,0,0.,4.8,0.,4.8,1.,4.8,0.,4.8
1986-01-26 18:27:08.370 ,2,0,0.,4.8,1.,4.8,0.,4.8,0.,4.8
1986-01-26 18:27:13.170 ,3,0,0.,4.8,1.,4.8,0.,4.8,0.,4.8
1986-01-26 18:27:17.970 ,3,0,0.,4.8,1.,4.8,0.,4.8,0.,4.8
1986-01-26 18:27:22.770 ,3,0,0.,4.8,0.,4.8,0.,4.8,0.,4.8
1986-01-26 18:27:27.570 ,3,0,0.,4.8,0.,4.8,0.,4.8,0.,4.8
1986-01-26 18:27:32.370 ,3,0,0.,4.8,0.,4.8,0.,4.8,0.,4.8
1986-01-26 18:27:37.170 ,3,0,0.,4.8,2.,4.8,0.,4.8,0.,4.8
1986-01-26 18:27:41.970 ,3,0,0.,4.8,0.,4.8,0.,4.8,0.,4.8
1986-01-26 18:27:46.770 ,3,0,0.,4.8,1.,4.8,0.,4.8,1.,4.8
1986-01-26 18:27:51.570 ,3,0,0.,4.8,0.,4.8,0.,4.8,0.,4.8
1986-01-26 18:27:56.370 ,3,0,0.,4.8,1.,4.8,0.,4.8,0.,4.8
1986-01-26 18:28:01.170 ,4,0,0.,4.8,1.,4.8,0.,4.8,0.,4.8
1986-01-26 18:28:05.970 ,4,0,0.,4.8,2.,4.8,1.,4.8,0.,4.8
1986-01-26 18:28:10.770 ,4,0,0.,4.8,0.,4.8,0.,4.8,0.,4.8
1986-01-26 18:28:15.570 ,4,0,0.,4.8,0.,4.8,0.,4.8,0.,4.8
1986-01-26 18:28:20.370 ,4,0,0.,4.8,1.,4.8,0.,4.8,0.,4.8
1986-01-26 18:28:25.170 ,4,0,0.,4.8,1.,4.8,0.,4.8,0.,4.8
1986-01-26 18:28:29.970 ,4,0,0.,4.8,0.,4.8,0.,4.8,0.,4.8
1986-01-26 18:28:34.770 ,4,0,0.,4.8,0.,4.8,0.,4.8,0.,4.8
1986-01-26 18:28:39.570 ,4,0,0.,4.8,1.,4.8,0.,4.8,0.,4.8
1986-01-26 18:28:44.370 ,4,0,0.,4.8,0.,4.8,0.,4.8,0.,4.8
1986-01-26 18:28:49.170 ,5,0,0.,4.8,0.,4.8,0.,4.8,0.,4.8
1986-01-26 18:28:53.970 ,5,0,0.,4.8,0.,4.8,0.,4.8,0.,4.8
1986-01-26 18:28:58.770 ,5,0,0.,4.8,0.,4.8,0.,4.8,0.,4.8
1986-01-26 18:29:03.570 ,5,0,0.,4.8,0.,4.8,0.,4.8,1.,4.8
1986-01-26 18:29:08.370 ,5,0,0.,4.8,0.,4.8,0.,4.8,0.,4.8
1986-01-26 18:29:13.170 ,5,0,0.,4.8,0.,4.8,0.,4.8,0.,4.8
1986-01-26 18:29:17.970 ,5,0,0.,4.8,0.,4.8,0.,4.8,1.,4.8
1986-01-26 18:29:22.770 ,5,0,0.,4.8,1.,4.8,0.,4.8,0.,4.8
1986-01-26 18:29:27.570 ,5,0,0.,4.8,1.,4.8,0.,4.8,1.,4.8
1986-01-26 18:29:32.370 ,5,0,0.,4.8,3.,4.8,0.,4.8,0.,4.8
1986-01-26 18:29:37.170 ,6,0,0.,4.8,1.,4.8,0.,4.8,0.,4.8
1986-01-26 18:29:41.970 ,6,0,0.,4.8,2.,4.8,0.,4.8,0.,4.8
1986-01-26 18:29:46.770 ,6,0,0.,4.8,0.,4.8,0.,4.8,0.,4.8
1986-01-26 18:29:51.570 ,6,0,0.,4.8,1.,4.8,0.,4.8,0.,4.8
1986-01-26 18:29:56.370 ,6,0,0.,4.8,1.,4.8,0.,4.8,0.,4.8
1986-01-26 18:30:01.170 ,6,0,0.,4.8,0.,4.8,0.,4.8,1.,4.8
1986-01-26 18:30:05.970 ,6,0,0.,4.8,0.,4.8,0.,4.8,0.,4.8
1986-01-26 18:30:10.770 ,6,0,0.,4.8,0.,4.8,0.,4.8,0.,4.8
1986-01-26 18:30:15.570 ,6,0,0.,4.8,0.,4.8,0.,4.8,0.,4.8
1986-01-26 18:30:20.370 ,6,0,0.,4.8,0.,4.8,0.,4.8,0.,4.8
1986-01-26 18:30:25.170 ,7,0,0.,4.8,1.,4.8,1.,4.8,0.,4.8
1986-01-26 18:30:29.970 ,7,0,0.,4.8,0.,4.8,0.,4.8,0.,4.8
1986-01-26 18:30:34.770 ,7,0,0.,4.8,0.,4.8,1.,4.8,0.,4.8
1986-01-26 18:30:39.570 ,7,0,0.,4.8,2.,4.8,0.,4.8,0.,4.8
1986-01-26 18:30:44.370 ,7,0,0.,4.8,1.,4.8,0.,4.8,0.,4.8
1986-01-26 18:30:49.170 ,7,0,0.,4.8,3.,4.8,0.,4.8,0.,4.8
1986-01-26 18:30:53.970 ,7,0,0.,4.8,0.,4.8,0.,4.8,0.,4.8
1986-01-26 18:30:58.770 ,7,0,0.,4.8,0.,4.8,0.,4.8,0.,4.8
1986-01-26 18:31:03.570 ,7,0,0.,4.8,0.,4.8,0.,4.8,0.,4.8
1986-01-26 18:31:08.370 ,7,0,0.,4.8,2.,4.8,0.,4.8,0.,4.8
1986-01-26 18:31:13.170 ,7,0,0.,4.8,0.,4.8,0.,4.8,0.,4.8
1986-01-26 18:31:17.970 ,7,0,0.,4.8,1.,4.8,0.,4.8,0.,4.8
1986-01-26 18:31:22.770 ,7,0,0.,4.8,0.,4.8,0.,4.8,0.,4.8
1986-01-26 18:31:27.570 ,7,0,0.,4.8,2.,4.8,1.,4.8,0.,4.8
1986-01-26 18:31:32.370 ,7,0,0.,4.8,1.,4.8,0.,4.8,1.,4.8
1986-01-26 18:31:37.170 ,7,0,0.,4.8,0.,4.8,0.,4.8,0.,4.8
1986-01-26 18:31:41.970 ,7,0,0.,4.8,2.,4.8,0.,4.8,0.,4.8
1986-01-26 18:31:46.770 ,7,0,0.,4.8,1.,4.8,0.,4.8,0.,4.8
1986-01-26 18:31:51.570 ,7,0,0.,4.8,2.,4.8,0.,4.8,0.,4.8
1986-01-26 18:31:56.370 ,7,0,0.,4.8,1.,4.8,0.,4.8,0.,4.8
1986-01-26 18:32:01.170 ,6,0,0.,4.8,1.,4.8,0.,4.8,0.,4.8
1986-01-26 18:32:05.970 ,6,0,0.,4.8,2.,4.8,0.,4.8,0.,4.8
1986-01-26 18:32:10.770 ,6,0,0.,4.8,2.,4.8,0.,4.8,0.,4.8
1986-01-26 18:32:15.570 ,6,0,0.,4.8,1.,4.8,0.,4.8,0.,4.8
1986-01-26 18:32:20.370 ,6,0,0.,4.8,1.,4.8,0.,4.8,0.,4.8
1986-01-26 18:32:25.170 ,6,0,0.,4.8,1.,4.8,0.,4.8,0.,4.8
1986-01-26 18:32:29.970 ,6,0,0.,4.8,0.,4.8,0.,4.8,0.,4.8
1986-01-26 18:32:34.770 ,6,0,0.,4.8,1.,4.8,0.,4.8,0.,4.8
1986-01-26 18:32:39.570 ,6,0,0.,4.8,1.,4.8,0.,4.8,0.,4.8
1986-01-26 18:32:44.370 ,6,0,0.,4.8,0.,4.8,0.,4.8,0.,4.8
1986-01-26 18:32:49.170 ,5,0,0.,4.8,3.,4.8,0.,4.8,0.,4.8
1986-01-26 18:32:53.970 ,5,0,0.,4.8,0.,4.8,0.,4.8,0.,4.8
1986-01-26 18:32:58.770 ,5,0,0.,4.8,2.,4.8,0.,4.8,0.,4.8
1986-01-26 18:33:03.570 ,5,0,0.,4.8,1.,4.8,0.,4.8,0.,4.8
1986-01-26 18:33:08.370 ,5,0,0.,4.8,1.,4.8,0.,4.8,0.,4.8
1986-01-26 18:33:13.170 ,5,0,0.,4.8,1.,4.8,0.,4.8,0.,4.8
1986-01-26 18:33:17.970 ,5,0,0.,4.8,0.,4.8,0.,4.8,0.,4.8